Time,TemperatureF,DewpointF,PressureIn,WindDirection,WindDirectionDegrees,WindSpeedMPH,WindSpeedGustMPH,Humidity,HourlyPrecipIn,Conditions,Clouds,dailyrainin,SoftwareType,DateUTC
2013-01-23 00:14:00,30.9,15.4,30.09,SSE,157,0.0,-999.0,52,-99.99,,,0.00,Acu-Link.com,2013-01-23 02:14:00,
2013-01-23 00:44:00,31.1,15.6,30.09,SSE,157,0.0,-999.0,52,-99.99,,,0.00,Acu-Link.com,2013-01-23 02:44:00,
2013-01-23 00:59:00,31.1,14.7,30.09,NW,315,1.1,-999.0,50,-99.99,,,0.00,Acu-Link.com,2013-01-23 02:59:00,
2013-01-23 01:15:00,31.3,14.8,30.09,ENE,67,1.1,-999.0,50,-99.99,,,0.00,Acu-Link.com,2013-01-23 03:15:00,
2013-01-23 01:30:00,31.5,16.3,30.09,WNW,292,0.0,-999.0,53,-99.99,,,0.00,Acu-Link.com,2013-01-23 03:30:00,
2013-01-23 01:45:00,31.3,16.6,30.09,SE,135,0.0,-999.0,54,-99.99,,,0.00,Acu-Link.com,2013-01-23 03:45:00,
2013-01-23 02:00:00,31.3,16.2,30.08,ESE,112,0.0,-999.0,53,-99.99,,,0.00,Acu-Link.com,2013-01-23 04:00:00,
2013-01-23 02:15:00,31.3,15.3,30.09,NNW,337,0.0,-999.0,51,-99.99,,,0.00,Acu-Link.com,2013-01-23 04:15:00,
2013-01-23 02:31:00,31.3,14.8,30.08,SSW,202,0.0,-999.0,50,-99.99,,,0.00,Acu-Link.com,2013-01-23 04:31:00,
2013-01-23 02:46:00,30.7,15.2,30.09,South,180,0.0,-999.0,52,-99.99,,,0.00,Acu-Link.com,2013-01-23 04:46:00,
2013-01-23 03:16:00,30.7,16.1,30.09,NE,45,0.0,-999.0,54,-99.99,,,0.00,Acu-Link.com,2013-01-23 05:16:00,
2013-01-23 03:47:00,30.7,15.7,30.09,East,90,0.0,-999.0,53,-99.99,,,0.00,Acu-Link.com,2013-01-23 05:47:00,
2013-01-23 04:02:00,30.6,17.2,30.10,SE,135,0.0,-999.0,57,-99.99,,,0.00,Acu-Link.com,2013-01-23 06:02:00,
2013-01-23 04:17:00,30.6,15.9,30.10,SW,225,1.6,-999.0,54,-99.99,,,0.00,Acu-Link.com,2013-01-23 06:17:00,
2013-01-23 04:32:00,30.6,15.5,30.10,South,180,0.0,-999.0,53,-99.99,,,0.00,Acu-Link.com,2013-01-23 06:32:00,
2013-01-23 04:48:00,30.4,16.2,30.10,SE,135,0.0,-999.0,55,-99.99,,,0.00,Acu-Link.com,2013-01-23 06:48:00,
2013-01-23 05:03:00,29.8,14.8,30.11,South,180,0.0,-999.0,53,-99.99,,,0.00,Acu-Link.com,2013-01-23 07:03:00,
2013-01-23 05:18:00,29.3,17.9,30.10,NE,45,0.0,-999.0,62,-99.99,,,0.00,Acu-Link.com,2013-01-23 07:18:00,
2013-01-23 05:33:00,28.9,15.6,30.10,NNW,337,0.0,-999.0,57,-99.99,,,0.00,Acu-Link.com,2013-01-23 07:33:00,
2013-01-23 05:48:00,28.4,16.7,30.11,SSE,157,0.0,-999.0,61,-99.99,,,0.00,Acu-Link.com,2013-01-23 07:48:00,
2013-01-23 06:04:00,27.9,18.7,30.11,South,180,0.0,-999.0,68,-99.99,,,0.00,Acu-Link.com,2013-01-23 08:04:00,
2013-01-23 06:19:00,28.0,16.4,30.11,ESE,112,1.6,-999.0,61,-99.99,,,0.00,Acu-Link.com,2013-01-23 08:19:00,
2013-01-23 06:34:00,28.0,16.4,30.11,SSE,157,0.0,-999.0,61,-99.99,,,0.00,Acu-Link.com,2013-01-23 08:34:00,
2013-01-23 06:49:00,28.0,15.6,30.11,WNW,292,0.0,-999.0,59,-99.99,,,0.00,Acu-Link.com,2013-01-23 08:49:00,
2013-01-23 07:15:00,28.0,16.0,30.11,ESE,112,0.0,-999.0,60,-99.99,,,0.00,Acu-Link.com,2013-01-23 09:15:00,
2013-01-23 07:30:00,27.7,16.0,30.10,ESE,112,0.0,-999.0,61,-99.99,,,0.00,Acu-Link.com,2013-01-23 09:30:00,
2013-01-23 07:45:00,27.1,17.0,30.11,SSE,157,0.0,-999.0,65,-99.99,,,0.00,Acu-Link.com,2013-01-23 09:45:00,
2013-01-23 08:00:00,27.0,15.3,30.10,SSW,202,1.6,-999.0,61,-99.99,,,0.00,Acu-Link.com,2013-01-23 10:00:00,
2013-01-23 08:15:00,26.6,15.4,30.10,South,180,0.0,-999.0,62,-99.99,,,0.00,Acu-Link.com,2013-01-23 10:15:00,
2013-01-23 08:30:00,26.2,16.8,30.10,SSW,202,0.0,-999.0,67,-99.99,,,0.00,Acu-Link.com,2013-01-23 10:30:00,
2013-01-23 08:45:00,25.7,15.6,30.11,South,180,0.0,-999.0,65,-99.99,,,0.00,Acu-Link.com,2013-01-23 10:45:00,
2013-01-23 09:01:00,25.5,16.1,30.11,SW,225,0.0,-999.0,67,-99.99,,,0.00,Acu-Link.com,2013-01-23 11:01:00,
2013-01-23 09:16:00,25.9,15.0,30.11,SE,135,0.0,-999.0,63,-99.99,,,0.00,Acu-Link.com,2013-01-23 11:16:00,
2013-01-23 09:46:00,25.5,17.1,30.12,SE,135,0.0,-999.0,70,-99.99,,,0.00,Acu-Link.com,2013-01-23 11:46:00,
2013-01-23 10:01:00,25.2,17.4,30.13,NNW,337,0.0,-999.0,72,-99.99,,,0.00,Acu-Link.com,2013-01-23 12:01:00,
2013-01-23 10:17:00,25.3,16.3,30.13,ENE,67,0.0,-999.0,68,-99.99,,,0.00,Acu-Link.com,2013-01-23 12:17:00,
2013-01-23 10:32:00,25.5,21.4,30.13,East,90,0.0,-999.0,84,-99.99,,,0.00,Acu-Link.com,2013-01-23 12:32:00,
2013-01-23 10:47:00,25.5,20.5,30.14,NNE,22,0.0,-999.0,81,-99.99,,,0.00,Acu-Link.com,2013-01-23 12:47:00,
2013-01-23 11:02:00,26.1,21.9,30.14,SE,135,0.0,-999.0,84,-99.99,,,0.00,Acu-Link.com,2013-01-23 13:02:00,
2013-01-23 11:17:00,27.7,22.6,30.13,NW,315,0.0,-999.0,81,-99.99,,,0.00,Acu-Link.com,2013-01-23 13:17:00,
2013-01-23 11:33:00,29.1,23.7,30.14,ESE,112,0.0,-999.0,80,-99.99,,,0.00,Acu-Link.com,2013-01-23 13:33:00,
2013-01-23 11:48:00,30.4,25.8,30.14,SE,135,0.0,-999.0,83,-99.99,,,0.00,Acu-Link.com,2013-01-23 13:48:00,
2013-01-23 12:03:00,32.2,24.5,30.13,SSE,157,0.0,-999.0,73,-99.99,,,0.00,Acu-Link.com,2013-01-23 14:03:00,
2013-01-23 12:18:00,33.8,21.8,30.14,SSE,157,1.6,-999.0,61,-99.99,,,0.00,Acu-Link.com,2013-01-23 14:18:00,
2013-01-23 12:34:00,34.3,21.5,30.15,North,0,0.0,-999.0,59,-99.99,,,0.00,Acu-Link.com,2013-01-23 14:34:00,
2013-01-23 12:49:00,34.5,20.5,30.15,ESE,112,1.6,-999.0,56,-99.99,,,0.00,Acu-Link.com,2013-01-23 14:49:00,
2013-01-23 13:04:00,37.0,22.4,30.15,WNW,292,3.1,-999.0,55,-99.99,,,0.00,Acu-Link.com,2013-01-23 15:04:00,
2013-01-23 13:19:00,39.0,23.4,30.15,WSW,247,0.0,-999.0,53,-99.99,,,0.00,Acu-Link.com,2013-01-23 15:19:00,
2013-01-23 13:34:00,40.8,25.9,30.16,NNW,337,1.6,-999.0,55,-99.99,,,0.00,Acu-Link.com,2013-01-23 15:34:00,
2013-01-23 13:50:00,43.2,28.1,30.17,East,90,2.2,-999.0,55,-99.99,,,0.00,Acu-Link.com,2013-01-23 15:50:00,
2013-01-23 14:05:00,43.2,28.1,30.16,NNW,337,3.1,-999.0,55,-99.99,,,0.00,Acu-Link.com,2013-01-23 16:05:00,
2013-01-23 14:20:00,44.4,29.7,30.16,East,90,6.3,-999.0,56,-99.99,,,0.00,Acu-Link.com,2013-01-23 16:20:00,
2013-01-23 14:35:00,45.3,30.1,30.15,SE,135,2.7,-999.0,55,-99.99,,,0.00,Acu-Link.com,2013-01-23 16:35:00,
2013-01-23 14:50:00,45.3,30.1,30.14,ESE,112,1.6,-999.0,55,-99.99,,,0.00,Acu-Link.com,2013-01-23 16:50:00,
2013-01-23 15:06:00,46.0,30.8,30.14,West,270,2.2,-999.0,55,-99.99,,,0.00,Acu-Link.com,2013-01-23 17:06:00,
2013-01-23 15:21:00,45.9,30.6,30.13,ESE,112,4.3,-999.0,55,-99.99,,,0.00,Acu-Link.com,2013-01-23 17:21:00,
2013-01-23 15:36:00,48.6,32.2,30.11,ENE,67,2.7,-999.0,53,-99.99,,,0.00,Acu-Link.com,2013-01-23 17:36:00,
2013-01-23 15:51:00,48.4,32.5,30.09,NNE,22,2.2,-999.0,54,-99.99,,,0.00,Acu-Link.com,2013-01-23 17:51:00,
2013-01-23 16:06:00,48.6,33.1,30.08,ESE,112,2.7,-999.0,55,-99.99,,,0.00,Acu-Link.com,2013-01-23 18:06:00,
2013-01-23 16:22:00,49.6,32.7,30.07,NE,45,2.7,-999.0,52,-99.99,,,0.00,Acu-Link.com,2013-01-23 18:22:00,
2013-01-23 16:37:00,51.3,35.2,30.06,South,180,4.7,-999.0,54,-99.99,,,0.00,Acu-Link.com,2013-01-23 18:37:00,
2013-01-23 16:52:00,51.3,34.7,30.05,NNW,337,4.7,-999.0,53,-99.99,,,0.00,Acu-Link.com,2013-01-23 18:52:00,
2013-01-23 17:07:00,51.4,34.9,30.04,West,270,3.8,-999.0,53,-99.99,,,0.00,Acu-Link.com,2013-01-23 19:07:00,
2013-01-23 17:22:00,49.5,34.0,30.04,SW,225,3.8,-999.0,55,-99.99,,,0.00,Acu-Link.com,2013-01-23 19:22:00,
2013-01-23 17:38:00,50.9,35.3,30.04,NE,45,4.3,-999.0,55,-99.99,,,0.00,Acu-Link.com,2013-01-23 19:38:00,
2013-01-23 17:53:00,50.2,33.7,30.03,SSE,157,6.3,-999.0,53,-99.99,,,0.00,Acu-Link.com,2013-01-23 19:53:00,
2013-01-23 18:08:00,49.8,33.9,30.04,SSE,157,3.8,-999.0,54,-99.99,,,0.00,Acu-Link.com,2013-01-23 20:08:00,
2013-01-23 18:23:00,49.6,34.1,30.04,NNE,22,3.1,-999.0,55,-99.99,,,0.00,Acu-Link.com,2013-01-23 20:23:00,
2013-01-23 18:39:00,49.6,33.7,30.03,ESE,112,1.6,-999.0,54,-99.99,,,0.00,Acu-Link.com,2013-01-23 20:39:00,
2013-01-23 18:54:00,48.9,33.5,30.02,South,180,1.6,-999.0,55,-99.99,,,0.00,Acu-Link.com,2013-01-23 20:54:00,
2013-01-23 19:09:00,48.7,33.3,30.02,ESE,112,3.8,-999.0,55,-99.99,,,0.00,Acu-Link.com,2013-01-23 21:09:00,
2013-01-23 19:24:00,47.8,32.5,30.01,North,0,1.1,-999.0,55,-99.99,,,0.00,Acu-Link.com,2013-01-23 21:24:00,
2013-01-23 19:39:00,47.5,31.7,30.01,SW,225,5.8,-999.0,54,-99.99,,,0.00,Acu-Link.com,2013-01-23 21:39:00,
2013-01-23 19:55:00,46.9,31.2,30.02,NNE,22,3.1,-999.0,54,-99.99,,,0.00,Acu-Link.com,2013-01-23 21:55:00,
2013-01-23 20:10:00,46.4,31.6,30.02,ESE,112,2.7,-999.0,56,-99.99,,,0.00,Acu-Link.com,2013-01-23 22:10:00,
2013-01-23 20:25:00,45.9,31.1,30.02,NW,315,1.6,-999.0,56,-99.99,,,0.00,Acu-Link.com,2013-01-23 22:25:00,
2013-01-23 20:40:00,45.0,30.7,30.02,WNW,292,1.6,-999.0,57,-99.99,,,0.00,Acu-Link.com,2013-01-23 22:40:00,
2013-01-23 20:55:00,44.2,30.8,30.01,SSE,157,0.0,-999.0,59,-99.99,,,0.00,Acu-Link.com,2013-01-23 22:55:00,
2013-01-23 21:11:00,43.5,30.2,30.02,SSW,202,0.0,-999.0,59,-99.99,,,0.00,Acu-Link.com,2013-01-23 23:11:00,
2013-01-23 21:26:00,42.6,30.1,30.02,North,0,1.6,-999.0,61,-99.99,,,0.00,Acu-Link.com,2013-01-23 23:26:00,
2013-01-23 21:41:00,42.1,30.0,30.02,SW,225,0.0,-999.0,62,-99.99,,,0.00,Acu-Link.com,2013-01-23 23:41:00,
2013-01-23 21:56:00,41.9,30.2,30.02,SSW,202,0.0,-999.0,63,-99.99,,,0.00,Acu-Link.com,2013-01-23 23:56:00,
2013-01-23 22:11:00,41.7,30.5,30.01,NNW,337,0.0,-999.0,64,-99.99,,,0.00,Acu-Link.com,2013-01-24 00:11:00,
2013-01-23 22:27:00,41.4,30.5,30.01,SSE,157,0.0,-999.0,65,-99.99,,,0.00,Acu-Link.com,2013-01-24 00:27:00,
2013-01-23 22:42:00,41.4,30.9,30.00,WNW,292,1.6,-999.0,66,-99.99,,,0.00,Acu-Link.com,2013-01-24 00:42:00,
2013-01-23 22:57:00,41.7,31.2,30.00,East,90,1.1,-999.0,66,-99.99,,,0.00,Acu-Link.com,2013-01-24 00:57:00,
2013-01-23 23:12:00,41.7,31.2,30.01,West,270,1.1,-999.0,66,-99.99,,,0.00,Acu-Link.com,2013-01-24 01:12:00,
2013-01-23 23:28:00,41.4,31.2,30.00,West,270,0.0,-999.0,67,-99.99,,,0.00,Acu-Link.com,2013-01-24 01:28:00,
2013-01-23 23:43:00,41.7,31.6,30.01,SE,135,1.6,-999.0,67,-99.99,,,0.00,Acu-Link.com,2013-01-24 01:43:00,
2013-01-23 23:58:00,41.9,31.8,30.00,ENE,67,2.2,-999.0,67,-99.99,,,0.00,Acu-Link.com,2013-01-24 01:58:00,